Find Feng Yun 2B

NORAD ID: 26382 Int'l Des: 2000-032 Owner: NSMC Country: CN operational
HEOCIRCULAR

Live Position

Loading 3D Globe...

About Feng Yun 2B

Description loading...

Upcoming Passes

Passes for default location (London). Set your location on the main map for personalized predictions.

Altitude History

Loading altitude history...

Two-Line Element Set

1 26382U 00032A 26109.00530884 .00000006 00000-0 00000+0 0 9997
2 26382 13.2146 17.3431 0003128 308.4024 251.5730 1.00099771 94330
Epoch: Apr 19, 2026 • Age: 21 hours

Current Status

Altitude 35845.3 km
Velocity 3.07 km/s
Sub-Earth Point 4.76°N, 8.25°E
Launch Date Jun 25, 2000
Age 25.8 years
Type other

Technical Details

Classification Payload
Mass 651.00 kg
Dry Mass 600.00 kg
Total Mass 651.00 kg
Length 3.00 m
Diameter 2.10 m
Span 3.00 m
Shape Cyl
Manufacturer SISE
Bus Type FY-2
Phase Status In Orbit
Owner/State NSMC/CN

Most Searched